Current Version              Previous Version:    01  02  03  04  05  06  07  08  09  10  11  12  13  14  15  16  17  18  19  20  21  22  23  24  25  26  27  28  29  30  
   31  32  33  34  35  36  37  38  39  40  41  42  43  44  45  46  47  48  49  50  51  52  53  54  55  56  57  58  59  60  

[Printable]
952
ASUS44 KFWD 280603
RWRTX
NORTH TEXAS HOURLY WEATHER ROUNDUP
NATIONAL WEATHER SERVICE FORT WORTH TX
1200 AM CST SUN DEC 28 2014

NOTE: "FAIR" INDICATES FEW OR NO CLOUDS BELOW 12,000 FEET WITH NO
SIGNIFICANT WEATHER AND/OR OBSTRUCTIONS TO VISIBILITY.

TXZ118-119-280700-
DALLAS/FORT WORTH METROPLEX

CITY           SKY/WX    TMP DP  RH WIND       PRES   REMARKS
DFW AIRPORT    CLOUDY    35  25  66 N9        30.30F WCI  28
6HR MIN TEMP:  35; 6HR MAX TEMP:  37;

DALLAS LOVE    CLOUDY    36  25  64 N12       30.31S WCI  28
6HR MIN TEMP:  36; 6HR MAX TEMP:  38;

FTW MEACHAM    CLOUDY    36  25  64 NW9       30.31S WCI  29
6HR MIN TEMP:  35; 6HR MAX TEMP:  38;

DAL-EXECUTIVE  CLOUDY    37  24  59 N14       30.30R WCI  28
6HR MIN TEMP:  37; 6HR MAX TEMP:  39;

FTW-ALLIANCE   CLOUDY    34  25  69 N7        30.31S WCI  28
6HR MIN TEMP:  33; 6HR MAX TEMP:  36;

ARLINGTON      CLOUDY    37  24  59 NW14      30.31S WCI  28
6HR MIN TEMP:  37; 6HR MAX TEMP:  39;

GRAND PRAIRIE  CLOUDY    36  28  73 N7        30.33S WCI  30
6HR MIN TEMP:  36; 6HR MAX TEMP:  38;

ADDISON        CLOUDY    36  27  70 N8        30.32F WCI  29
6HR MIN TEMP:  36; 6HR MAX TEMP:  38;

MESQUITE       CLOUDY    35  28  74 NW8       30.31S WCI  29
6HR MIN TEMP:  35; 6HR MAX TEMP:  37;

LANCASTER      CLOUDY    36  26  66 N10       30.32S WCI  28
6HR MIN TEMP:  35; 6HR MAX TEMP:  38;

$$

TXZ091>094-102>105-117-120-121-131>134-280700-
NORTH CENTRAL TEXAS

CITY           SKY/WX    TMP DP  RH WIND       PRES   REMARKS
SHRMAN/DENISON CLOUDY    33  29  85 NW8       30.30F WCI  26
6HR MIN TEMP:  33; 6HR MAX TEMP:  36;

BRIDGEPORT     CLOUDY    34  26  74 N6        30.34S WCI  29
6HR MIN TEMP:  33; 6HR MAX TEMP:  35;

DECATUR        CLOUDY    33  23  67 N6        30.30R WCI  27
6HR MIN TEMP:  31; 6HR MAX TEMP:  34;

DENTON         CLOUDY    33  25  72 N5        30.32S WCI  29
6HR MIN TEMP:  33; 6HR MAX TEMP:  36;

MCKINNEY       CLOUDY    35  26  69 N10       30.30F WCI  27
6HR MIN TEMP:  35; 6HR MAX TEMP:  37;

ROCKWALL       CLOUDY    36  28  72 N10       30.28F WCI  28
6HR MIN TEMP:  35; 6HR MAX TEMP:  37;

TERRELL        CLOUDY    37  27  67 N9        30.30S WCI  30
6HR MIN TEMP:  37; 6HR MAX TEMP:  40;

WAXAHACHIE     CLOUDY    35  29  77 N10       30.31F WCI  27
6HR MIN TEMP:  35; 6HR MAX TEMP:  37;

CLEBURNE       CLOUDY    36  27  69 N13G18    30.30F WCI  27
GRANBURY       CLOUDY    35  27  72 NW6       30.32F WCI  30
6HR MIN TEMP:  35; 6HR MAX TEMP:  38;

$$

TXZ083>090-098>101-113>116-127>130-139>142-154-155-280700-
WESTERN NORTH TEXAS

CITY           SKY/WX    TMP DP  RH WIND       PRES   REMARKS
WICHITA FALLS  MOCLDY    28  23  81 N6        30.32F WCI  22
6HR MIN TEMP:  27; 6HR MAX TEMP:  33;

WF-KICKAPOO    CLOUDY    31  27  86 CALM      30.33F
6HR MIN TEMP:  30; 6HR MAX TEMP:  35;

VERNON         CLEAR     28  20  71 NW7       30.33F WCI  21
6HR MIN TEMP:  28; 6HR MAX TEMP:  37;

ABILENE        PTCLDY    31  26  82 N3        30.30F
6HR MIN TEMP:  30; 6HR MAX TEMP:  33;

ABILENE-DYESS  PTCLDY    30  27  87 W5        30.29F WCI  25
6HR MIN TEMP:  29; 6HR MAX TEMP:  33;

BRECKENRIDGE   PTCLDY    33  28  81 CALM      30.32S
6HR MIN TEMP:  32; 6HR MAX TEMP:  35;

MINERAL WELLS  CLOUDY    33  26  75 NW5       30.30S WCI  29
6HR MIN TEMP:  32; 6HR MAX TEMP:  35;

STEPHENVILLE   CLOUDY    33  27  77 N8        30.32F WCI  26
6HR MIN TEMP:  33; 6HR MAX TEMP:  35;

COMANCHE       CLOUDY    33  28  80 N7        30.31S WCI  27
6HR MIN TEMP:  33; 6HR MAX TEMP:  35;

COLEMAN        PTCLDY    32  28  86 N3        30.31S
6HR MIN TEMP:  32; 6HR MAX TEMP:  35;

BRADY          CLEAR     34  27  75 NW5       30.30F WCI  30
$$

TXZ143>147-156>162-174-175-280700-
CENTRAL TEXAS

CITY           SKY/WX    TMP DP  RH WIND       PRES   REMARKS
WACO           CLOUDY    37  27  67 N12       30.31F WCI  29
6HR MIN TEMP:  37; 6HR MAX TEMP:  39;

WACO-MCGREGOR  CLOUDY    37  25  60 N10G18    30.33R WCI  30
6HR MIN TEMP:  37; 6HR MAX TEMP:  39;

CORSICANA      CLOUDY    38  29  70 N13       30.30F WCI  30
6HR MIN TEMP:  38; 6HR MAX TEMP:  41;

MEXIA          CLOUDY    37  32  81 N13       30.27S WCI  29
6HR MIN TEMP:  37; 6HR MAX TEMP:  40;

HEARNE         CLOUDY    40  33  76 NW17G23   30.27F WCI  31
6HR MIN TEMP:  40; 6HR MAX TEMP:  43;

CAMERON        CLOUDY    40  32  74 N21G28    30.27F WCI  30
6HR MIN TEMP:  40; 6HR MAX TEMP:  43;

TEMPLE         CLOUDY    37  25  60 NW13      30.30R WCI  29
6HR MIN TEMP:  37; 6HR MAX TEMP:  41;

KILLEEN        CLOUDY    36  27  72 N15       30.29S WCI  26
6HR MIN TEMP:  36; 6HR MAX TEMP:  38;

KILLEEN-SKYLRK CLOUDY    37  23  56 NW13G18   30.28S WCI  29
6HR MIN TEMP:  37; 6HR MAX TEMP:  41;

FORT HOOD      CLOUDY    36  28  72 N15       30.29S WCI  27
6HR MIN TEMP:  36; 6HR MAX TEMP:  39;

GATESVILLE     CLOUDY    36  27  69 N8        30.32F WCI  29
HAMILTON       CLOUDY    35  25  68 N9        30.30S WCI  28
6HR MIN TEMP:  35; 6HR MAX TEMP:  37;

LAMPASAS       CLOUDY    35  27  71 N7        30.29S WCI  29
6HR MIN TEMP:  35; 6HR MAX TEMP:  38;

$$

TXZ095>097-106>112-122>126-135>138-148>153-164>167-280700-
EAST TEXAS

CITY           SKY/WX    TMP DP  RH WIND       PRES   REMARKS
PARIS          CLOUDY    34  27  75 NW12      30.28R WCI  25
6HR MIN TEMP:  34; 6HR MAX TEMP:  37;

SULPHUR SPRNGS CLOUDY    36  30  79 N12       30.31R WCI  28
6HR MIN TEMP:  36; 6HR MAX TEMP:  39;

MOUNT PLEASANT CLOUDY    37  34  89 NW12G17   30.27F WCI  29
6HR MIN TEMP:  37; 6HR MAX TEMP:  41;

GILMER         CLOUDY    36  33  87 NW8       30.25R WCI  30
6HR MIN TEMP:  36; 6HR MAX TEMP:  40;

MINEOLA        CLOUDY    37  32  81 NW7       30.29R WCI  32
TYLER          CLOUDY    38  32  79 N9        30.25R WCI  31
6HR MIN TEMP:  38; 6HR MAX TEMP:  42; 6HR PCP: TRACE;

LONGVIEW       CLOUDY    39  35  86 NW13      30.22S WCI  31
6HR MIN TEMP:  39; 6HR MAX TEMP:  44;

MARSHALL       CLOUDY    42  39  90 NW13G18   30.24S WCI  35
6HR MIN TEMP:  42; 6HR MAX TEMP:  48;

PALESTINE      CLOUDY    38  35  86 NW12G17   30.27F WCI  31
JACKSONVILLE   CLOUDY    39  37  93 NW8       30.23F WCI  33
HENDERSON      CLOUDY    38  37  94 NW6       30.23F WCI  34
6HR MIN TEMP:  38; 6HR MAX TEMP:  43;

NACOGDOCHES      N/A    N/A N/A N/A MISG        N/A
LUFKIN         CLOUDY    46  40  79 NW13      30.19F
6HR MIN TEMP:  46; 6HR MAX TEMP:  50; 6HR PCP: TRACE;

$$

SUPPLEMENTAL OBSERVATIONS (CENTRAL)

CITY           SKY/WX    TMP DP  RH WIND       PRES   REMARKS
$$

SUPPLEMENTAL OBSERVATIONS (WEST)

CITY           SKY/WX    TMP DP  RH WIND       PRES   REMARKS
$$

SUPPLEMENTAL OBSERVATIONS (EAST)

CITY           SKY/WX    TMP DP  RH WIND       PRES   REMARKS
$$

SUPPLEMENTAL OBSERVATIONS ARE A COLLECTION OF AUTOMATED INSTRUMENTS
THAT ARE MAINTAINED BY A VARIETY OF FEDERAL AND STATE AGENCIES.
CERTAIN ELEMENTS...SUCH AS HUMIDITY VALUES AND SUSTAINED WIND
SPEEDS...MAY BE APPROXIMATED.